TimeCST,TemperatureF,Dew PointF,Humidity,Sea Level PressureIn,VisibilityMPH,Wind Direction,Wind SpeedMPH,Gust SpeedMPH,PrecipitationIn,Events,Conditions,WindDirDegrees,DateUTC
12:53 AM,35.1,33.1,92,30.08,7.0,Calm,Calm,-,N/A,,Clear,0,2012-12-01 06:53:00
1:53 AM,36.0,33.1,89,30.07,7.0,East,4.6,-,N/A,,Clear,80,2012-12-01 07:53:00
2:53 AM,37.0,34.0,89,30.07,7.0,East,5.8,-,N/A,,Clear,100,2012-12-01 08:53:00
3:53 AM,37.4,33.8,87,30.05,8.0,ESE,3.5,-,N/A,,Clear,120,2012-12-01 09:53:00
4:53 AM,37.0,34.0,89,30.04,7.0,SE,3.5,-,N/A,,Clear,140,2012-12-01 10:53:00
5:53 AM,37.0,35.1,93,30.03,6.0,South,5.8,-,N/A,,Clear,170,2012-12-01 11:53:00
6:53 AM,39.0,37.0,93,30.02,6.0,South,3.5,-,N/A,,Clear,170,2012-12-01 12:53:00
7:53 AM,44.1,42.1,93,30.01,5.0,South,4.6,-,N/A,,Overcast,170,2012-12-01 13:53:00
8:53 AM,46.9,44.1,90,30.00,5.0,South,6.9,-,N/A,,Clear,180,2012-12-01 14:53:00
9:20 AM,48.2,44.6,87,29.99,6.0,South,6.9,-,N/A,,Mostly Cloudy,190,2012-12-01 15:20:00
9:53 AM,50.0,46.9,89,30.00,6.0,South,9.2,-,N/A,,Overcast,190,2012-12-01 15:53:00
10:16 AM,51.8,46.4,82,29.98,6.0,South,9.2,-,N/A,,Overcast,190,2012-12-01 16:16:00
10:38 AM,51.8,48.2,88,29.97,6.0,South,9.2,-,N/A,,Overcast,190,2012-12-01 16:38:00
10:53 AM,52.0,48.0,86,29.98,6.0,South,10.4,-,N/A,,Overcast,180,2012-12-01 16:53:00
11:53 AM,55.9,50.0,80,29.95,7.0,South,10.4,-,N/A,,Overcast,180,2012-12-01 17:53:00
12:25 PM,57.2,51.8,82,29.93,7.0,South,9.2,-,N/A,,Overcast,190,2012-12-01 18:25:00
12:48 PM,57.2,51.8,82,29.91,7.0,South,8.1,-,N/A,,Overcast,180,2012-12-01 18:48:00
12:53 PM,57.9,52.0,81,29.92,8.0,South,8.1,-,N/A,,Overcast,180,2012-12-01 18:53:00
1:17 PM,57.2,51.8,82,29.90,8.0,South,9.2,-,N/A,,Overcast,180,2012-12-01 19:17:00
1:36 PM,59.0,53.6,82,29.90,8.0,South,8.1,-,N/A,,Overcast,180,2012-12-01 19:36:00
1:53 PM,59.0,53.1,81,29.90,8.0,South,10.4,-,N/A,,Overcast,190,2012-12-01 19:53:00
2:53 PM,59.0,53.6,82,29.89,8.0,South,5.8,-,N/A,,Overcast,180,2012-12-01 20:53:00
3:53 PM,60.8,53.6,77,29.88,9.0,South,9.2,-,N/A,,Overcast,190,2012-12-01 21:53:00
4:53 PM,61.0,53.1,75,29.88,10.0,South,10.4,-,N/A,,Overcast,190,2012-12-01 22:53:00
5:53 PM,61.0,54.0,78,29.87,10.0,South,11.5,-,N/A,,Overcast,180,2012-12-01 23:53:00
6:53 PM,61.0,54.0,78,29.86,10.0,South,12.7,-,N/A,,Mostly Cloudy,180,2012-12-02 00:53:00
7:53 PM,61.0,54.0,78,29.86,10.0,South,10.4,-,N/A,,Overcast,190,2012-12-02 01:53:00
8:53 PM,61.0,54.0,78,29.86,10.0,South,9.2,-,N/A,,Overcast,180,2012-12-02 02:53:00
9:53 PM,60.1,54.0,80,29.86,10.0,South,9.2,-,0.00,,Overcast,190,2012-12-02 03:53:00
10:53 PM,60.1,54.0,80,29.85,10.0,SSW,8.1,-,N/A,,Overcast,200,2012-12-02 04:53:00
11:53 PM,60.1,55.0,83,29.86,10.0,South,9.2,-,0.00,,Overcast,190,2012-12-02 05:53:00